Погода в Павлодаре

Казахстан     52°17′08″N   76°56′27″E
темп.,
°C
ветер,
м/с
пор.,
м/с
влажн.,
%
обл.,
%
осадки,
мм/ч
давл.,
гПа
погр.,
м
8 марта, пн
пн800:00−5ю6119093 0.0 1016204
03:00−4ю61288100 0.0 1014249
06:00−4ю61188100 0.0 1012215
09:00−4ююз61479100 0.0 1009413
12:000юз81486100 0.0 1009779
15:000зюз814100100 0.1 1010852
18:00−6зсз81289100 0.3 1015592
21:00−12з599233 0.0 1021175
9 марта, вт
вт900:00−15зюз459324 0.0 102568
03:00−14юз47920 0.0 1026118
06:00−16ююз478825 0.0 1027104
09:00−13ююз5108184 0.0 1027227
12:00−9ююз588086 0.0 1026274
15:00−6ююз588296 0.0 1024372
18:00−8ю478760 0.0 1023125
21:00−11ю45840 0.0 102249
10 марта, ср
ср1000:00−12ююз34833 0.0 102130
03:00−13юз338178 0.0 102021
06:00−14ююв237989 0.0 101920
09:00−11юв348476 0.0 1016115
12:00−6юв598688 0.0 1012293
15:00−1ююв71192100 0.0 1006407
18:00+2ю818100100 0.8 1001576
21:00+2ююз81697100 1.6 1001529
11 марта, чт
чт1100:00−4зюз91491100 1.7 1006771
03:00−9зюз7148778 0.0 1010424
06:00−10юз5138853 0.0 1012292
09:00−8юз71586100 0.0 1014603
12:00−6зюз81379100 0.0 1015695
15:00−5юз6107733 0.0 1016620
18:00−6ю5108436 0.0 1014236
21:00−4ююз81783100 0.2 1014920
12 марта, пт
пт1200:00−9зюз10168198 0.3 1018933
03:00−14зюз716840 0.0 1021574
06:00−17зюз515870 0.0 1023483
09:00−17зюз713850 0.0 1025587
12:00−15зюз711844 0.0 1027623
15:00−14з688544 0.0 1029604
18:00−16з369062 0.0 1030222
21:00−20зсз22940 0.0 103120